Airfield :
LOGIN :

Register | Disclaimer

   EN    FR    IT 

 










Legend :    VFR   Marginal VFR   IFR   Intensive IFR   Very Intensive IFR
Visi :
Ceiling :
>= 8 km
>= 3000ft
5 to 8 km
1000 to 3000 ft
1500m to 5 km
500 to 1000 ft
800 to 1500m
200 to 500 ft
< 800m
< 200 ft
Symbols :   Thunderstorms  Fog  Heavy snow  Heavy precipitations  Wind > 20 kt
SIGMETs :     Misc.  Thunderstorms  Icing  Turbulence  Mountain Waves  Volcanic Ashes







- Airport Elevation : 194 ft
- IATA code : ANE
- Download approach charts


LFJR - Angers Marcé

CURRENT METAR :
  • 260900Z AUTO 26006KT 220V320 9999 BKN021 BKN026 BKN037 13/07 Q1023 NOSIG

EXPIRED METARs :
  • 260830Z AUTO VRB03KT 9999 BKN020 OVC068 12/07 Q1023 NOSIG
  • 260800Z AUTO 26004KT 220V280 9999 FEW014 OVC072 11/08 Q1023 NOSIG
  • 260730Z AUTO 26005KT 220V310 CAVOK 10/07 Q1023 NOSIG
  • 260700Z AUTO 24004KT 210V270 CAVOK 09/07 Q1023 NOSIG
  • 260630Z AUTO VRB01KT CAVOK 07/07 Q1023 NOSIG

TAF TAF LFJR
Valid from the 26 at 09:00 until the 26 at 18:00 UTC


260800Z 2609/2618 25005KT CAVOK
No reported NOTAMs for that airfield.



MET'MAP, your aeronautical weather chart ! - Copyright ORBIFLY December 2007 - Disclaimer

ORBIFLY MET'MAP TEAM :

Programming & Development : Alexandra Zaïnal
Concept & Development : Baudouin d'Aumeries
Co-Development & Prog : Marc-Olivier Méhu
Technical & hardware support : Manuel Goepfert

Contact : metmap@orbifly.com




SOURCES & CREDITS :

   NOAA